This is the latest recevied weather packets stored in our database for station/object KK4MOR. If no packets are shown the sender has not sent any weather packets the latest 10 day(s).
| Time | Temp. | Humidity | Pressure | Rain* | Wind** | Luminosity | Snow |
|---|---|---|---|---|---|---|---|
| 1777194018 | 12.78° C | 97% | 1009.6 hPa | 0 mm | - | - | - |
| 1777193115 | 12.78° C | 97% | 1009.4 hPa | 0 mm | - | - | - |
| 1777192221 | 13.33° C | 97% | 1009.2 hPa | 0 mm | - | - | - |
| 1777191315 | 13.33° C | 97% | 1009 hPa | 0 mm | - | - | - |
| 1777190419 | 13.89° C | 98% | 1009 hPa | 0 mm | - | - | - |
| 1777189512 | 13.89° C | 98% | 1009 hPa | 0 mm | - | - | - |
| 1777188609 | 13.89° C | 98% | 1008.8 hPa | 0 mm | - | - | - |
| 1777187709 | 12.78° C | 98% | 1008.5 hPa | 0 mm | - | - | - |
| 1777186807 | 12.22° C | 97% | 1008.5 hPa | 0 mm | - | - | - |
| 1777185904 | 12.78° C | 97% | 1008.7 hPa | 0 mm | - | - | - |
| 1777185002 | 12.78° C | 97% | 1008.8 hPa | 0 mm | - | - | - |
| 1777184163 | 13.33° C | 98% | 1009.1 hPa | 0.25 mm | - | - | - |
| 1777183260 | 13.33° C | 97% | 1009.4 hPa | 0.25 mm | - | - | - |
| 1777182357 | 13.33° C | 97% | 1009.2 hPa | 0.25 mm | - | - | - |
| 1777181484 | 13.33° C | 97% | 1009.1 hPa | 0.25 mm | - | - | - |
| 1777180557 | 13.33° C | 97% | 1009.1 hPa | 0 mm | - | - | - |
| 1777179651 | 13.33° C | 97% | 1008.8 hPa | 0 mm | - | - | - |
| 1777178750 | 13.33° C | 97% | 1008.7 hPa | 0 mm | - | - | - |
| 1777177864 | 13.89° C | 96% | 1008.6 hPa | 0 mm | - | - | - |
| 1777176947 | 13.89° C | 97% | 1008.8 hPa | 0 mm | - | - | - |
| 1777176056 | 13.89° C | 96% | 1008.6 hPa | 0 mm | - | - | - |
| 1777175153 | 13.89° C | 96% | 1008.5 hPa | 0 mm | - | - | - |
| 1777174242 | 14.44° C | 96% | 1008.4 hPa | 0 mm | - | - | - |
| 1777173340 | 14.44° C | 96% | 1008.5 hPa | 0 mm | - | - | - |
| 1777172499 | 15° C | 96% | 1008.3 hPa | 0 mm | - | - | - |
* Rain latest hour (hover to see other rain measurements)
** Current wind speed in m/s (hover to see current wind gust speed)